When you browse on this site, cookies collect data to enhance your experience and personalize the content and advertising you see.
Visit our Privacy Policy to learn more. By continuing to use the site, you agree to this use of cookies and data.
  • In Deutschland
  • Länderverzeichnis
  • Für 7 Tage
  • Wassertemperatur
  • Wetterkarte
  • Widgets
  • user-avatar
    Anmelden

    Stündliche Wetter Townsville

    Heute, 23 September, Montag

    Zeit Temperatur Niederschläge Wind Luftdruck Luftfeuchtigkeit
    00:00 +19°C° 0 mm 3 m/S 759 mmHg 90%
    01:00 +19°C° 0 mm 3 m/S 759 mmHg 91%
    02:00 +19°C° 0 mm 3 m/S 759 mmHg 91%
    03:00 +18°C° 0 mm 3 m/S 759 mmHg 92%
    04:00 +18°C° 0 mm 3 m/S 759 mmHg 92%
    05:00 +19°C° 0 mm 3 m/S 759 mmHg 91%
    06:00 +19°C° 0 mm 3 m/S 759 mmHg 89%
    07:00 +19°C° 0 mm 3 m/S 760 mmHg 88%
    08:00 +22°C° 0 mm 3 m/S 760 mmHg 77%
    09:00 +25°C° 0 mm 4 m/S 760 mmHg 66%
    10:00 +28°C° 0 mm 4 m/S 759 mmHg 52%
    11:00 +28°C° 0 mm 5 m/S 759 mmHg 49%
    12:00 +29°C° 0 mm 5 m/S 758 mmHg 47%
    13:00 +29°C° 0 mm 6 m/S 758 mmHg 44%
    14:00 +29°C° 0 mm 6 m/S 757 mmHg 47%
    15:00 +28°C° 0 mm 6 m/S 757 mmHg 49%
    16:00 +27°C° 0 mm 5 m/S 757 mmHg 50%
    17:00 +25°C° 0 mm 4 m/S 757 mmHg 59%
    18:00 +23°C° 0 mm 4 m/S 758 mmHg 68%
    19:00 +21°C° 0 mm 3 m/S 758 mmHg 77%
    20:00 +20°C° 0 mm 3 m/S 758 mmHg 80%
    21:00 +20°C° 0 mm 3 m/S 759 mmHg 84%
    22:00 +19°C° 0 mm 3 m/S 759 mmHg 88%
    23:00 +19°C° 0 mm 3 m/S 759 mmHg 89%

    Morgen, 24 September, Dienstag

    Zeit Temperatur Niederschläge Wind Luftdruck Luftfeuchtigkeit
    00:00 +19°C° 0 mm 3 m/S 758 mmHg 89%
    01:00 +19°C° 0 mm 2 m/S 758 mmHg 90%
    02:00 +19°C° 0 mm 2 m/S 758 mmHg 90%
    03:00 +18°C° 0 mm 2 m/S 758 mmHg 91%
    04:00 +18°C° 0 mm 2 m/S 757 mmHg 92%
    05:00 +19°C° 0 mm 2 m/S 758 mmHg 90%
    06:00 +19°C° 0 mm 2 m/S 758 mmHg 89%
    07:00 +20°C° 0 mm 2 m/S 758 mmHg 87%
    08:00 +22°C° 0 mm 3 m/S 758 mmHg 75%
    09:00 +25°C° 0 mm 3 m/S 759 mmHg 63%
    10:00 +27°C° 0 mm 4 m/S 759 mmHg 50%
    11:00 +28°C° 0 mm 4 m/S 758 mmHg 49%
    12:00 +29°C° 0 mm 5 m/S 758 mmHg 47%
    13:00 +29°C° 0 mm 6 m/S 757 mmHg 45%
    14:00 +29°C° 0 mm 5 m/S 757 mmHg 46%
    15:00 +29°C° 0 mm 5 m/S 757 mmHg 47%
    16:00 +28°C° 0 mm 5 m/S 756 mmHg 47%
    17:00 +26°C° 0 mm 5 m/S 757 mmHg 59%
    18:00 +23°C° 0 mm 4 m/S 757 mmHg 70%
    19:00 +21°C° 0 mm 4 m/S 758 mmHg 81%
    20:00 +20°C° 0 mm 4 m/S 758 mmHg 84%
    21:00 +20°C° 0 mm 4 m/S 759 mmHg 87%
    22:00 +20°C° 0 mm 3 m/S 759 mmHg 90%
    23:00 +20°C° 0 mm 4 m/S 759 mmHg 89%

    übermorgen, 25 September, Mittwoch

    Zeit Temperatur Niederschläge Wind Luftdruck Luftfeuchtigkeit
    00:00 +20°C° 0 mm 4 m/S 758 mmHg 89%
    01:00 +20°C° 0 mm 4 m/S 758 mmHg 88%
    02:00 +20°C° 0 mm 4 m/S 758 mmHg 89%
    03:00 +20°C° 0 mm 4 m/S 758 mmHg 89%
    04:00 +19°C° 0 mm 3 m/S 758 mmHg 89%
    05:00 +20°C° 0 mm 4 m/S 758 mmHg 87%
    06:00 +20°C° 0 mm 4 m/S 759 mmHg 85%
    07:00 +21°C° 0 mm 4 m/S 759 mmHg 83%
    08:00 +22°C° 0 mm 4 m/S 759 mmHg 75%
    09:00 +25°C° 0 mm 5 m/S 759 mmHg 67%
    10:00 +26°C° 0 mm 5 m/S 759 mmHg 59%
    11:00 +27°C° 0 mm 5 m/S 758 mmHg 55%
    12:00 +28°C° 0 mm 5 m/S 758 mmHg 51%
    13:00 +29°C° 0 mm 6 m/S 757 mmHg 48%
    14:00 +29°C° 0 mm 6 m/S 757 mmHg 50%
    15:00 +28°C° 0 mm 6 m/S 757 mmHg 52%
    16:00 +28°C° 0 mm 6 m/S 756 mmHg 54%
    17:00 +26°C° 0 mm 6 m/S 757 mmHg 63%
    18:00 +23°C° 0 mm 5 m/S 757 mmHg 72%
    19:00 +21°C° 0 mm 5 m/S 758 mmHg 81%
    20:00 +21°C° 0 mm 5 m/S 758 mmHg 82%
    21:00 +21°C° 0 mm 5 m/S 759 mmHg 84%
    22:00 +21°C° 0 mm 5 m/S 759 mmHg 85%
    23:00 +21°C° 0 mm 5 m/S 759 mmHg 84%

    26 September, Donnerstag

    Zeit Temperatur Niederschläge Wind Luftdruck Luftfeuchtigkeit
    00:00 +21°C° 0 mm 5 m/S 759 mmHg 83%
    01:00 +21°C° 0 mm 5 m/S 758 mmHg 82%
    02:00 +20°C° 0 mm 5 m/S 758 mmHg 82%
    03:00 +20°C° 0 mm 5 m/S 758 mmHg 83%
    04:00 +20°C° 0 mm 4 m/S 758 mmHg 84%
    05:00 +20°C° 0 mm 4 m/S 758 mmHg 83%
    06:00 +20°C° 0 mm 4 m/S 759 mmHg 82%
    07:00 +20°C° 0 mm 4 m/S 759 mmHg 81%
    08:00 +22°C° 0.1 mm 4 m/S 759 mmHg 75%
    09:00 +25°C° 0.1 mm 5 m/S 759 mmHg 69%
    10:00 +26°C° 0.1 mm 5 m/S 759 mmHg 62%
    11:00 +27°C° 0 mm 6 m/S 758 mmHg 57%
    12:00 +28°C° 0 mm 6 m/S 757 mmHg 52%
    13:00 +29°C° 0 mm 6 m/S 757 mmHg 47%
    14:00 +29°C° 0 mm 6 m/S 757 mmHg 51%
    15:00 +28°C° 0 mm 6 m/S 756 mmHg 55%
    16:00 +28°C° 0 mm 6 m/S 756 mmHg 59%
    17:00 +26°C° 0 mm 5 m/S 756 mmHg 66%
    18:00 +23°C° 0 mm 5 m/S 757 mmHg 73%
    19:00 +22°C° 0 mm 4 m/S 757 mmHg 80%
    20:00 +21°C° 0 mm 4 m/S 758 mmHg 82%
    21:00 +21°C° 0 mm 4 m/S 758 mmHg 84%
    22:00 +20°C° 0 mm 3 m/S 758 mmHg 87%
    23:00 +20°C° 0 mm 3 m/S 758 mmHg 87%

    27 September, Freitag

    Zeit Temperatur Niederschläge Wind Luftdruck Luftfeuchtigkeit
    00:00 +20°C° 0 mm 3 m/S 758 mmHg 88%
    01:00 +19°C° 0 mm 3 m/S 758 mmHg 89%
    02:00 +19°C° 0 mm 3 m/S 758 mmHg 90%
    03:00 +19°C° 0 mm 3 m/S 757 mmHg 90%
    04:00 +19°C° 0 mm 2 m/S 757 mmHg 91%
    05:00 +19°C° 0 mm 2 m/S 758 mmHg 89%
    06:00 +20°C° 0 mm 2 m/S 758 mmHg 87%
    07:00 +20°C° 0 mm 3 m/S 758 mmHg 86%
    08:00 +22°C° 0 mm 3 m/S 758 mmHg 74%
    09:00 +26°C° 0 mm 3 m/S 758 mmHg 63%
    10:00 +28°C° 0 mm 4 m/S 758 mmHg 51%
    11:00 +29°C° 0 mm 4 m/S 758 mmHg 51%
    12:00 +29°C° 0 mm 5 m/S 757 mmHg 50%
    13:00 +30°C° 0 mm 5 m/S 756 mmHg 50%
    14:00 +29°C° 0 mm 5 m/S 756 mmHg 53%
    15:00 +29°C° 0 mm 5 m/S 756 mmHg 56%
    16:00 +28°C° 0 mm 5 m/S 755 mmHg 59%
    17:00 +26°C° 0 mm 4 m/S 756 mmHg 68%
    18:00 +25°C° 0 mm 4 m/S 757 mmHg 78%
    19:00 +22°C° 0 mm 3 m/S 757 mmHg 87%
    20:00 +21°C° 0 mm 3 m/S 757 mmHg 88%
    21:00 +21°C° 0 mm 3 m/S 758 mmHg 89%
    22:00 +21°C° 0 mm 3 m/S 758 mmHg 91%
    23:00 +21°C° 0 mm 2 m/S 758 mmHg 91%

    28 September, Samstag

    Zeit Temperatur Niederschläge Wind Luftdruck Luftfeuchtigkeit
    00:00 +20°C° 0 mm 2 m/S 758 mmHg 91%
    01:00 +20°C° 0 mm 2 m/S 757 mmHg 91%
    02:00 +20°C° 0 mm 2 m/S 757 mmHg 92%
    03:00 +20°C° 0 mm 2 m/S 757 mmHg 92%
    04:00 +20°C° 0 mm 2 m/S 757 mmHg 92%
    05:00 +20°C° 0 mm 2 m/S 757 mmHg 90%
    06:00 +21°C° 0 mm 2 m/S 757 mmHg 89%
    07:00 +21°C° 0 mm 2 m/S 758 mmHg 87%
    08:00 +25°C° 0 mm 3 m/S 758 mmHg 74%
    09:00 +27°C° 0 mm 3 m/S 758 mmHg 62%
    10:00 +29°C° 0 mm 4 m/S 758 mmHg 49%
    11:00 +29°C° 0 mm 4 m/S 757 mmHg 49%
    12:00 +30°C° 0 mm 4 m/S 757 mmHg 48%
    13:00 +30°C° 0 mm 5 m/S 756 mmHg 48%
    14:00 +29°C° 0 mm 5 m/S 756 mmHg 50%
    15:00 +29°C° 0 mm 5 m/S 755 mmHg 52%
    16:00 +28°C° 0 mm 4 m/S 755 mmHg 54%
    17:00 +26°C° 0 mm 4 m/S 756 mmHg 64%
    18:00 +24°C° 0 mm 3 m/S 756 mmHg 74%
    19:00 +21°C° 0 mm 3 m/S 757 mmHg 83%
    20:00 +21°C° 0 mm 3 m/S 757 mmHg 84%
    21:00 +21°C° 0 mm 3 m/S 758 mmHg 85%
    22:00 +21°C° 0 mm 3 m/S 758 mmHg 86%
    23:00 +21°C° 0 mm 3 m/S 758 mmHg 86%
    Mehr zeigen